ARCTICSAT 1 (RS74S)

Last updated on Thu Oct 30 2025 00:03:10 GMT+0000 (Coordinated Universal Time)

1 61762U 24199AD 25302.50077826 .00046510 00000+0 92605-3 0 9994 2 61762 97.3284 172.7340 0010523 36.5568 323.6398 15.46717107102001
UTC large
Height (km)
Speed (km/s)
/
Latitude / Longitude
Inclination (degrees)
Orbital Period (minutes)
Azimuth
Elevation
Range (km)
Doppler Factor

Next 0 passes for location: London (51.5072 / 0.1276)

Sorry there are no passes over London.